STARLINK-1156, 45054

Orbit data source: Space-Track

STARLINK-1156, 45054 is a payload satellite owned by SpaceX/Seattle (US) in LEO that was launched on Wed, 29 Jan 2020 UTC via an FALCON 9 launch vehicle from the Air Force Eastern Test Range (AFETR). Payload-class satellites include a variety of spacecraft equipped with specific instruments for various scientific and technological missions. These include communications satellites like Starlink; space stations such as the ISS; scientific satellites like the Hubble; Earth observation satellites from companies like Planet Labs, Umbra, and HawkEye 360; GPS; miniature CubeSats for education and research; and military/defense satellites.

Loading next visibility...
Identifier
45054, 2020-006L
Orbit
LEO
Country
Flag of USUS
Related business
Manufacturer
SpaceX/Seattle
Mission
Operational Commercial Communications
Bus & Motor
STARLINK, Unknown motor
Mass
260 kg wet, ~248 kg dry
Launch date (UTC)
2020-01-29 (6 years ago)
Launch vehicle
FALCON 9
Launch site
Air Force Eastern Test Range (AFETR)
Object type
Payload
Rocket body
Debris
Shape & HBR
Box + 1 Pan, 10.1 m
Radar Cross Section
13.562 m², Large (>1 m²)

Expand to show TLE details & history
Last TLE update: 12 hours ago

TLE from 12 hours ago
0 STARLINK-1156
1 45054U 20006L   26062.68333118  .00004923  00000-0  17811-3 0  9994
2 45054  53.1611 308.8922 0001158  86.7421 273.3712 15.30223449335629
Epoch: 2026-03-03T16:23Z
TLE epoch observation values (Epoch: 2026-03-03T16:23:59.813Z)
Latitude
-0.00006°
Longitude
-98.56594°
Altitude
475.998 km
Speed
7.629 km/s
True Right ascension
20h 35m 34s
True Declination
0° 00' 00"
Sunlit
Object was in daylight at epoch
Visualization orbit readout
Latitude
Unknown
Longitude
Unknown
Altitude
Unknown
Speed
Unknown
Apparent Right ascension
Unknown
Apparent Declination
Unknown
Sunlit
N/A
Visualization observer readout
Local Sidereal Time
07:43:26
Azimuth
Unknown
Elevation
Unknown
Doppler factor
Unknown
Orbital elements
Apogee altitude
476.195 km
Perigee altitude
474.608 km
Semi-major axis
6,853.538 km
Eccentricity
0.00012
Inclination
53.1611°
RAAN
308.8922°
Arg. of periapsis
86.7421°
True anomaly
273.35795°
Mean anomaly
273.3712°
Eccentric anomaly
273.36458°
Mean motion
3.82535 °/min
Orbital period
94.11 mins
BSTAR
0.00017811
Loading maneuver chart data...
Computing Atmospheric mass density...
Loading historical data...
Loading historical data...
Loading historical data...
Loading historical data...
Loading historical data...
Loading historical data...
Loading historical data...

Documentation

Showing up to 5 results
|